{"data":{"norad_id":43811,"intl_designator":"2018-099BF","name":"NEXTSAT-1","alt_names":[],"object_type":"PAYLOAD","status":"ACTIVE","operator":null,"country":"SKOR","launch_date":"2018-12-03","launch_site_code":"AFWTR","launch_vehicle":null,"mission":null,"orbit_class":"UNKNOWN","rcs_meters":null,"size_class":null,"mass_kg":null,"dimensions":null,"purposes":[],"wikipedia_slug":null,"has_3d_model":false,"image_url":null,"decayed_at":null,"tle_current":{"epoch":"2026-09-20T02:15:40.366080Z","epoch_age_seconds":88436,"freshness":"FRESH","line1":"1 43811U 18099BF  26263.09421720  .00001230  00000+0  81537-4 0  9991","line2":"2 43811  97.3986 302.4665 0012452  18.2363 341.9310 15.09015056426199","mean_motion":15.09015056,"eccentricity":0.0012452,"inclination_deg":97.3986,"raan_deg":302.4665,"arg_perigee_deg":18.2363,"mean_anomaly_deg":341.931,"bstar":8.1537e-5,"rev_number":42619,"period_min":95.426483272941,"perigee_km":530.59488608414,"apogee_km":547.82184297997,"semimajor_km":6917.3453645321,"source":"CELESTRAK","updated_at":"2026-09-20T09:00:14.410316Z"}}}